MDT,Max TemperatureF,Mean TemperatureF,Min TemperatureF,Max Dew PointF,MeanDew PointF,Min DewpointF,Max Humidity, Mean Humidity, Min Humidity, Max Sea Level PressureIn, Mean Sea Level PressureIn, Min Sea Level PressureIn, Max VisibilityMiles, Mean VisibilityMiles, Min VisibilityMiles, Max Wind SpeedMPH, Mean Wind SpeedMPH, Max Gust SpeedMPH,PrecipitationIn, CloudCover, Events, WindDirDegrees
2013-9-1,86,72,57,58,48,40,77,46,20,30.18,30.12,30.05,10,10,10,13,5,,0.00,0,,95
2013-9-2,92,73,54,57,51,47,81,47,25,30.15,30.09,30.01,10,10,2,18,5,26,0.00,0,,162
2013-9-3,97,79,61,59,55,52,74,47,22,30.09,30.04,29.96,10,10,10,16,4,20,0.00,0,,181
2013-9-4,97,80,64,63,57,52,77,48,23,30.13,30.08,30.04,10,10,10,29,5,39,0.00,1,Rain-Thunderstorm,135
2013-9-5,97,84,72,62,54,48,63,38,19,30.15,30.09,30.03,10,10,5,24,9,38,0.00,0,Thunderstorm,153
2013-9-6,104,82,60,56,50,43,74,37,13,30.07,30.01,29.93,10,10,10,10,3,18,0.00,0,Thunderstorm,193
2013-9-7,101,80,59,64,55,40,86,47,12,30.06,30.00,29.94,10,10,10,14,5,18,0.00,0,,117
2013-9-8,101,82,63,66,53,39,96,49,12,30.00,29.90,29.79,10,8,0,18,7,26,0.00,1,Fog,147
2013-9-9,93,76,61,64,55,49,89,48,26,30.00,29.87,29.81,10,10,10,21,9,28,0.00,1,Thunderstorm,9
2013-9-10,85,72,60,61,56,51,89,59,32,30.17,30.08,29.97,10,10,10,22,10,30,0.00,2,,18
2013-9-11,74,68,62,65,61,54,93,78,49,30.24,30.20,30.16,10,10,7,13,5,16,0.13,4,Rain,83
2013-9-12,81,72,63,64,60,49,94,74,34,30.31,30.26,30.22,10,9,5,20,6,26,0.01,6,,105
2013-9-13,66,62,56,60,55,51,92,82,64,30.24,30.14,30.03,10,9,2,16,9,23,0.35,8,Rain,126
2013-9-14,81,69,58,65,60,55,94,78,53,30.02,29.92,29.86,10,10,3,14,7,23,0.01,5,Rain-Thunderstorm,155
2013-9-15,68,64,58,62,56,52,91,78,58,30.31,30.17,29.96,10,10,3,21,11,28,0.35,6,Rain-Thunderstorm,52
2013-9-16,59,57,55,55,53,52,94,88,78,30.30,30.22,30.11,10,9,2,13,9,18,0.00,8,,141
2013-9-17,88,72,57,64,59,55,95,72,33,30.11,29.92,29.80,10,8,2,14,9,18,0.00,4,,181
2013-9-18,93,74,55,62,55,44,96,61,18,29.89,29.76,29.70,10,9,4,43,4,60,0.40,2,Rain-Thunderstorm,318
2013-9-19,69,59,49,57,51,45,87,70,44,30.19,30.01,29.79,10,10,2,25,10,33,0.10,2,Rain,4
2013-9-20,77,60,42,54,46,40,93,66,30,30.20,30.11,30.01,10,9,2,9,1,,0.00,0,,238
2013-9-21,88,66,46,57,49,44,95,57,22,30.02,29.89,29.78,10,10,5,15,5,22,0.00,0,,191
2013-9-22,87,72,57,59,54,49,92,59,31,29.78,29.68,29.56,10,10,10,21,7,30,0.00,0,,154
2013-9-23,71,64,55,56,51,48,87,67,44,29.94,29.67,29.51,10,10,5,31,12,39,0.06,4,Rain-Thunderstorm,93
2013-9-24,76,61,46,52,43,36,93,56,23,30.09,30.00,29.93,10,10,5,10,6,,0.00,0,,272
2013-9-25,86,68,50,50,46,38,80,49,19,29.92,29.69,29.50,10,10,7,25,10,34,0.00,0,,135
2013-9-26,82,67,52,54,50,46,85,58,29,29.73,29.66,29.50,10,10,10,17,8,22,0.00,0,,33
2013-9-27,62,55,47,52,46,43,90,73,55,29.93,29.79,29.67,10,10,7,21,12,30,0.16,4,Rain-Thunderstorm,2
2013-9-28,70,54,37,44,38,32,94,63,25,30.09,30.04,29.94,10,10,7,22,9,29,0.00,1,,280
2013-9-29,82,60,37,46,38,28,95,59,14,30.08,29.94,29.82,10,10,10,10,2,17,0.00,0,,246
2013-9-30,88,66,43,48,41,31,91,52,13,29.85,29.79,29.71,10,10,10,17,5,22,0.00,0,,240